sat.trackr.live / text

‹ back to catalog

IRIDIUM 154

NORAD 43574 · 2018-061F

PAYLOAD ACTIVE UNKNOWN

§ Identity

Operator
Country
US
Launch date
2018-07-25
Launch site
AFWTR
Launch vehicle
Mass (kg)
RCS (m²)

Purposes: comms

External: N2YO · Heavens-Above · Gunter

§ Orbital elements

Epoch: 2026-09-19T06:42:34.448832Z

Period
100.40 min
Inclination
86.4009°
Eccentricity
0.0001957
Mean motion
14.34217612 rev/d
Perigee alt
776.3 km
Apogee alt
779.1 km
Semi-major
7,155.8 km
B*
-3.4343e-6
RAAN
17.4581°
Arg perigee
94.7713°
Mean anomaly
265.3706°
Rev number
42,689

§ Raw data

IRIDIUM 1541 43574U 18061F   26262.27956538  .00000010  00000+0 -34343-5 0  99952 43574  86.4009  17.4581 0001957  94.7713 265.3706 14.34217612426890

JSON: /api/v1/satellites/43574 · /tle

For live sub-satellite position, see the globe view (requires WebGL).

§ Visibility from observer

Set your observer location to see the next 7 days of passes ≥ 10°. The values pass through the URL so the page stays shareable.

No JS? Fill the form by hand. The geolocation button needs JavaScript.